Location: Unspecified
(0.0000°N, 0.0000°E)
Time: 02:43:32
(UTC+00:00)

Vanguard 2 Rocket - Visible Passes

Search period start: 23 May 2015 00:00
Search period end: 02 June 2015 00:00
Orbit: 556 x 3330 km, 32.9° (Epoch: 22 May)

Date Brightness Start Highest point End Pass type
(mag) Time Alt. Az. Time Alt. Az. Time Alt. Az.
23 May 10.0 03:42:44 17° SSW 03:47:55 20° SSE 03:55:47 10° ESE visible
23 May 9.0 19:27:17 10° WNW 19:39:02 74° SSW 19:49:55 31° SE visible
23 May 10.1 21:44:31 10° W 21:55:48 33° SW 21:55:48 33° SW visible
24 May 10.2 02:47:14 19° SSE 02:47:14 19° SSE 02:55:03 10° SE visible
24 May 9.2 04:53:51 10° SW 05:06:05 35° SSE 05:13:38 10° E visible
24 May 8.8 18:28:35 10° NW 18:38:35 85° NE 18:54:31 14° SE visible
24 May 9.7 20:43:42 10° W 20:56:57 42° SSW 21:00:23 39° S visible
24 May 10.9 23:05:48 10° WSW 23:06:16 11° WSW 23:06:16 11° WSW visible
25 May 10.6 01:51:45 13° SE 01:51:45 13° SE 01:53:46 10° SE visible
25 May 9.7 03:57:38 19° SSW 04:05:25 29° SSE 04:14:08 10° ESE visible
25 May 9.4 19:43:49 10° WNW 19:55:29 53° SSW 20:04:58 30° SSE visible
25 May 10.4 22:03:03 10° WSW 22:10:50 23° SW 22:10:50 23° SW visible
26 May 10.0 03:02:11 24° S 03:04:05 25° SSE 03:13:55 10° ESE visible
26 May 8.6 05:09:03 10° SW 05:22:50 55° SSE 05:30:34 10° ENE visible
26 May 8.9 18:44:41 10° WNW 18:54:41 68° SSW 19:09:32 16° SE visible
26 May 10.0 21:01:30 10° WSW 21:14:13 31° SSW 21:15:24 31° SSW visible
27 May 10.3 02:06:44 20° SSE 02:06:44 20° SSE 02:12:53 10° ESE visible
27 May 9.2 04:12:37 21° SSW 04:22:31 43° SSE 04:31:36 10° E visible
27 May 9.7 20:00:59 10° W 20:12:23 38° SSW 20:19:56 27° SSE visible
27 May 10.7 22:22:15 10° SW 22:25:48 15° SW 22:25:48 15° SW visible
28 May 9.7 03:17:11 30° S 03:21:31 35° SSE 03:31:59 10° E visible
28 May 8.3 05:24:40 10° SW 05:39:06 85° SE 05:46:51 10° ENE visible
28 May 9.3 19:01:20 10° W 19:11:14 47° SSW 19:24:26 16° SE visible
28 May 10.3 21:20:06 10° WSW 21:30:19 23° SSW 21:30:19 23° SSW visible
29 May 10.0 02:21:46 28° SSE 02:21:46 28° SSE 02:31:34 10° ESE visible
29 May 8.8 04:27:38 21° SW 04:39:09 63° SSE 04:48:21 10° ENE visible
29 May 8.8 18:02:20 10° WNW 18:10:46 61° SSW 18:25:51 10° SE visible
29 May 10.0 20:18:55 10° WSW 20:29:45 27° SSW 20:34:47 24° S visible
30 May 10.5 01:26:20 17° SE 01:26:20 17° SE 01:30:10 10° ESE visible
30 May 9.3 03:32:12 36° SSW 03:38:30 49° SSE 03:49:16 10° E visible
30 May 9.7 19:18:38 10° W 19:28:14 32° SSW 19:39:14 16° SSE visible
30 May 10.5 21:39:13 10° SW 21:45:05 17° SSW 21:45:05 17° SSW visible
31 May 9.7 02:36:47 39° SSE 02:37:09 40° SSE 02:49:27 10° E visible
31 May 8.5 04:42:39 20° SW 04:55:18 89° NW 05:04:30 10° NE visible
31 May 9.2 18:19:06 10° W 18:27:25 40° SSW 18:41:07 10° SE visible
31 May 10.3 20:37:37 10° SW 20:47:32 21° S 20:49:30 20° S visible
01 Jun 10.2 01:41:20 27° SE 01:41:20 27° SE 01:48:45 10° E visible
01 Jun 8.9 03:47:12 39° SW 03:55:00 70° SSE 04:05:50 10° ENE visible
01 Jun 10.0 19:36:45 10° WSW 19:45:40 23° SSW 19:53:53 15° SSE visible
01 Jun 10.7 21:58:04 10° SW 21:59:45 12° SSW 21:59:45 12° SSW visible
